Location: ????????
(56.1167°N, 38.6333°E)
Time: 10:47:34
(UTC+00:00)

Cosmos 1346 Rocket - Pass Details

Date: 18 February 2026
Orbit: 476 x 485 km, 81.2° (Epoch: 11 March)

Event Time Altitude Azimuth Distance (km) Brightness Sun altitude
Rises 16:53:26 0° 212° (SSW) 2,530 6.5 -19.8°
Reaches altitude 10° 16:55:37 10° 219° (SW) 1,658 5.6 -20.1°
Maximum altitude 16:59:04 41° 291° (WNW) 718 3.9 -20.6°
Drops below altitude 10° 17:02:33 10° 3° (N) 1,677 5.4 -21.0°
Sets 17:04:46 0° 11° (N) 2,565 6.3 -21.3°
